SES-15 (WAAS/PRN 133)

Last updated on Oct. 27, 2021, 12:03 a.m. UTC

1 42709U 17026A   21299.45218903  .00000067  00000-0  00000-0 0  9996
2 42709   0.0286   4.4712 0000593 230.5786 193.6657  1.00270173 17158
UTC
Height (km)
Latitude
Longitude
Inclination
Orbital Period
UTC large
Height (km)
Speed (km/s)
/
Latitude / Longitude
Inclination (degrees)
Orbital Period (minutes)
Azimuth
Elevation
Range (km)
Doppler Factor
iOS Compass Heading
iOS Angle